South Lake Tahoe, CA

6:15 PM PST on February 24, 2017 (GMT -0800)
Lake Tahoe

Weather History for KTVL - May, 2015

Change the Weather History Date:

Sunday, May 3, 2015

  Actual Average Record
Temperature  
Mean Temperature 50 °F 45 °F  
Max Temperature 69 °F 60 °F 77 °F (2004)
Min Temperature 31 °F 30 °F 22 °F (1981)
Degree Days  
Heating Degree Days 15 20  
Month to date heating degree days 38 62  
Since 1 July heating degree days 5202 6952  
Cooling Degree Days 0 0  
Month to date cooling degree days 0 0  
Year to date cooling degree days 0 0  
Moisture  
Dew Point 29 °F    
Average Humidity 51    
Maximum Humidity 82    
Minimum Humidity 20    
Precipitation  
Precipitation 0.00 in - 0.85 in (1964)
Month to date precipitation 0.00  
Year to date precipitation 5.85  
Sea Level Pressure  
Sea Level Pressure 29.89 in    
Wind  
Wind Speed 4 mph (South)    
Max Wind Speed 20 mph    
Max Gust Speed 28 mph    
Visibility 10 miles    
Events      
T = Trace of Precipitation, MM = Missing Value Source: NWS Daily Summary

Daily Weather History Graph

Daily Weather History Graph

Search for Another Location

Airport or City:

Trip Planner

Search our weather history database for the weather conditions in past years. The results will help you decide how hot, cold, wet, or windy it might be!

Date:

Astronomy

May. 03, 2015 Rise Set
Actual Time 6:00 AM PDT 7:54 PM PDT
Civil Twilight 5:31 AM PDT 8:23 PM PDT
Nautical Twilight 4:55 AM PDT 8:58 PM PDT
Astronomical Twilight 4:18 AM PDT 9:36 PM PDT
Moon 7:42 PM PDT (5/3) 5:54 AM PDT (5/3)
Length of Visible Light 14h 52m
Length of Day
13h 54m
Full, 100% of the Moon is Illuminated
May 3
Full
May 3
Full
May 11
Last Quarter
May 17
New
May 25
First Quarter

Hourly Weather History & Observations

Time (PDT) Temp. Windchill Dew Point Humidity Pressure Visibility Wind Dir Wind Speed Gust Speed Precip Events Conditions
12:53 AM 41.0 °F - 33.1 °F 73% 29.91 in 10.0 mi Calm Calm - N/A   Clear
1:53 AM 39.0 °F - 32.0 °F 76% 29.90 in 10.0 mi Calm Calm - N/A   Clear
2:53 AM 37.0 °F 34.5 °F 30.0 °F 76% 29.90 in 10.0 mi South 3.5 mph - N/A   Clear
3:53 AM 34.0 °F 31.0 °F 28.9 °F 82% 29.91 in 10.0 mi South 3.5 mph - N/A   Clear
4:53 AM 33.1 °F 30.0 °F 27.0 °F 78% 29.91 in 10.0 mi SSW 3.5 mph - N/A   Clear
5:53 AM 32.0 °F - 26.1 °F 79% 29.92 in 10.0 mi Calm Calm - N/A   Clear
6:53 AM 32.0 °F - 27.0 °F 82% 29.93 in 10.0 mi Calm Calm - N/A   Clear
7:53 AM 42.1 °F 40.2 °F 30.0 °F 62% 29.91 in 10.0 mi South 3.5 mph - N/A   Clear
8:53 AM 54.0 °F - 25.0 °F 33% 29.89 in 10.0 mi ENE 3.5 mph - N/A   Clear
9:53 AM 60.1 °F - 30.0 °F 32% 29.89 in 10.0 mi Variable 4.6 mph - N/A   Clear
10:53 AM 62.1 °F - 24.1 °F 23% 29.89 in 10.0 mi Variable 4.6 mph - N/A   Clear
11:53 AM 64.9 °F - 24.1 °F 21% 29.88 in 10.0 mi Variable 6.9 mph - N/A   Clear
12:53 PM 66.0 °F - 25.0 °F 21% 29.87 in 10.0 mi NNE 8.1 mph - N/A   Clear
1:53 PM 66.9 °F - 24.1 °F 20% 29.86 in 10.0 mi Variable 3.5 mph - N/A   Clear
2:53 PM 68.0 °F - 26.1 °F 21% 29.85 in 10.0 mi Variable 3.5 mph 24.2 mph N/A   Clear
3:53 PM 66.9 °F - 28.9 °F 24% 29.85 in 10.0 mi South 10.4 mph 25.3 mph N/A   Clear
4:53 PM 66.0 °F - 28.9 °F 25% 29.86 in 10.0 mi SSW 11.5 mph 18.4 mph N/A   Clear
5:53 PM 64.0 °F - 30.0 °F 28% 29.88 in 10.0 mi Variable 3.5 mph - N/A   Clear
6:53 PM 61.0 °F - 30.9 °F 32% 29.89 in 10.0 mi South 8.1 mph - N/A   Clear
7:53 PM 57.9 °F - 33.1 °F 39% 29.88 in 10.0 mi Calm Calm - N/A   Clear
8:53 PM 55.0 °F - 34.0 °F 45% 29.87 in 10.0 mi Calm Calm - N/A   Clear
9:53 PM 51.1 °F - 34.0 °F 52% 29.88 in 10.0 mi Calm Calm - N/A   Clear
10:53 PM 48.0 °F - 34.0 °F 58% 29.89 in 10.0 mi SSE 3.5 mph - N/A   Clear
11:53 PM 45.0 °F - 33.1 °F 63% 29.90 in 10.0 mi Calm Calm - N/A   Clear